« Back
NWS Peachtree City, Ga » Text Product » GA Regional Weather Roundup


Printer-friendly Version
Current Version              Previous Versions:   1  2  3  4  5  6  7  8  9  

Regional Weather Roundup

217
ASUS42 KFFC 300903
RWRGA
WEATHER ROUNDUP FOR GEORGIA
NATIONAL WEATHER SERVICE PEACHTREE CITY GA
500 AM EDT WED JUL 30 2014

NOTE: "FAIR" INDICATES FEW OR NO CLOUDS BELOW 12,000 FEET WITH NO
SIGNIFICANT WEATHER AND/OR OBSTRUCTIONS TO VISIBILITY.

* = USE WITH CAUTION. THE STATIONS MARKED WITH AN ASTERISK MAY NOT
REPORT WEATHER SUCH AS PRECIPITATION, FOG, OR THUNDER AND ARE NOT
QUALITY CONTROLLED BY NWS.

THE REMARK "TC" DENOTES TEMPERATURE READING IN DEGREES CELSIUS.

GAZ001>058-301000-
NORTH GEORGIA

CITY           SKY/WX    TMP DP  RH WIND       PRES   REMARKS
ATLANTA        CLEAR     60  53  77 NW6       30.03S
ATHENS         CLEAR     61  55  81 CALM      30.02S
CHAMBLEE       CLEAR     59  51  75 CALM      30.03S
PEACHTREE CITY CLEAR     60  55  83 NW3       30.04S
ROME           CLEAR     58  53  84 N3        30.05S
WEST ATLANTA   CLEAR     59  53  80 CALM      30.03S
GAINESVILLE    CLEAR     62  52  69 N5        30.05S
CARTERSVILLE   CLEAR     54  51  90 CALM      30.05S


CITY           SKY/WX    TMP DP  RH WIND       PRES   REMARKS
DALTON*        CLEAR     57  55  94 CALM      30.05F
MARIETTA       CLEAR     61  54  78 NW3       30.04S
$$

GAZ059>098-102>109-301000-
CENTRAL GEORGIA

CITY           SKY/WX    TMP DP  RH WIND       PRES   REMARKS
AUGUSTA-BUSH   MOCLDY    69  62  78 N5        29.97R
AUGUSTA-DANIEL CLEAR     71  60  68 N10       29.98S
COLUMBUS       CLEAR     66  54  65 CALM      30.02S
MACON          CLEAR     61  60  97 W5        30.00R
ROBINS AFB     CLEAR     64  60  87 N8        30.00R


CITY           SKY/WX    TMP DP  RH WIND       PRES   REMARKS
LAGRANGE*      CLEAR     60  58  92 CALM      30.04S
SYLVANIA*      PTCLDY    68  68 100 CALM      29.96S
MILLEDGEVILLE* CLEAR     63  55  77 CALM      30.00R
$$

GAZ099>101-110>166-301000-
SOUTH GEORGIA

CITY           SKY/WX    TMP DP  RH WIND       PRES   REMARKS
SAVANNAH       MOCLDY    73  66  78 CALM      29.95R
VALDOSTA       CLEAR     67  61  81 CALM      29.97S
ALMA           PTCLDY    70  61  73 NW3       29.96R
ST SIMONS      PTCLDY    78  73  84 NW5       29.93S
FT STEWART     CLOUDY    70  66  87 CALM      29.94R
ALBANY         CLEAR     66  60  81 N3        30.01S
HUNTER AFB     MOCLDY    73  70  91 NW5       29.92S
MOODY AFB      CLEAR     67  66  96 NW6       29.97R
BRUNSWICK      CLEAR     75  70  83 CALM      29.94S


CITY           SKY/WX    TMP DP  RH WIND       PRES   REMARKS
BAINBRIDGE*    MOCLDY    72  66  83 CALM      30.00R
MOULTRIE*      CLEAR     68  63  83 N3        30.00R
VIDALIA*         N/A     70  63  78 N6        29.97S
WAYCROSS*      MOCLDY    71  65  80 CALM      29.96R
DOUGLAS*       MOCLDY    72  61  68 N5        29.98S
$$



USA.gov is the U.S. government's official web portal to all federal, state and local government web resources and services.